Home   Weather   Bundi   Past weeks

Flag for India Past Weather in Bundi, Rajasthan, India — Yesterday and Last 2 Weeks

Now
79 °F

Haze.


Feels Like: 79 °F
Forecast: 55 / 84 °F
Wind: 2 mph from North

Location: Jaipur / Sanganer

Current Time: Dec 10, 2016 at 6:35:32 pm

Latest Report: Dec 10, 2016 at 5:30 pm


Visibility: 2 mi

Pressure: 29.92 "Hg

Humidity: 30%

Dew Point: 45 °F

Location of BundiLocation

Past Weather in Bundi — Graph

°F

Bundi Temperature Yesterday

Maximum temperature yesterday: 84 °F (at 2:30 pm)
Minimum temperature yesterday: 55 °F (at 7:00 am)
Average temperature yesterday: 68 °F

High & Low Weather Summary for the Past Weeks

 TemperatureHumidityPressure
High88 °F (Nov 29, 2:30 pm)100% (Dec 5, 12:00 am)30.24 "Hg (Dec 5, 12:00 am)
Low52 °F (Dec 4, 6:30 am)14% (Nov 25, 5:00 pm)29.92 "Hg (Nov 29, 2:30 pm)
Average70 °F42%30.05 "Hg
* Reported Nov 25 5:00 pm — Dec 10 4:30 pm, Bundi, Weather by CustomWeather, © 2016

Note: Actual official high and low records may vary slightly from our data, if they occured in-between our weather recording intervals... More about our weather records

Advertising

Bundi Weather History for the Previous 24 Hours

Scroll right to see more
 ConditionsComfort  
Time TempWeatherWind HumidityBarometerVisibility
4:30 pm
Sat, Dec 10
81 °FHaze.6 mph30%29.92 "Hg3 mi
3:30 pm82 °FHaze.6 mph26%29.92 "Hg3 mi
2:30 pm82 °FHaze.5 mph26%29.92 "Hg3 mi
2:00 pm82 °FHaze.5 mph26%29.95 "Hg3 mi
1:30 pm82 °FHaze.6 mph26%29.95 "Hg2 mi
1:00 pm81 °FHaze.6 mph30%29.98 "Hg2 mi
12:00 pm77 °FHaze.6 mph34%30.01 "Hg2 mi
11:30 am77 °FHaze.5 mph36%30.01 "Hg2 mi
11:00 am77 °FClear.1 mph39%30.04 "Hg2 mi
10:30 am73 °FHaze.1 mph41%30.04 "Hg2 mi
10:00 am73 °FClear.1 mph41%30.04 "Hg2 mi
9:00 am70 °FClear.No wind50%30.01 "Hg1 mi
8:00 am61 °FClear.No wind68%29.98 "Hg1 mi
7:30 am55 °FClear.3 mph77%29.98 "Hg1 mi
7:00 am57 °FClear.No wind77%29.95 "Hg1 mi
6:00 am57 °FClear.No wind77%29.95 "Hg1 mi
5:30 am57 °FClear.No wind72%29.95 "Hg1 mi
5:00 am57 °FClear.No wind77%29.92 "Hg1 mi
4:00 am61 °FClear.No wind72%29.92 "Hg1 mi
3:00 am59 °FClear.No wind77%29.95 "Hg1 mi
2:30 am63 °FClear.No wind68%29.98 "Hg1 mi
12:00 am63 °FClear.No wind68%29.95 "Hg1 mi
11:30 pm
Fri, Dec 9
63 °FClear.No wind68%29.98 "Hg1 mi
11:00 pm64 °FClear.No wind60%29.98 "Hg1 mi
10:00 pm66 °FClear.No wind56%29.98 "Hg1 mi
9:30 pm68 °FClear.2 mph53%29.98 "Hg1 mi
9:00 pm68 °FClear.No wind53%29.98 "Hg1 mi
8:30 pm70 °FClear.No wind46%29.95 "Hg1 mi
8:00 pm68 °FClear.No wind46%29.95 "Hg1 mi
7:00 pm72 °FHaze.No wind38%29.95 "Hg1 mi
6:30 pm72 °FHaze.No wind38%29.95 "Hg2 mi
6:00 pm75 °FHaze.1 mph31%29.92 "Hg2 mi
Weather by CustomWeather, © 2016

See weather overviewHow to use our weather pages